Location: Unspecified
(57.6483°N, 3.3184°W)
Time: 18:47:34
(UTC+01:00)

N. Korean satellite - Pass Details

Date: 02 March 2021
Orbit: 452 x 499 km, 97.2° (Epoch: 20 April)

Event Time Altitude Azimuth Distance (km) Brightness Sun altitude
Rises 05:46:58 0° 16° (NNE) 2,513 10.5 -11.1°
Reaches altitude 10° 05:49:01 10° 19° (NNE) 1,639 9.5 -10.9°
Maximum altitude 05:52:32 67° 103° (ESE) 520 6.9 -10.4°
Drops below altitude 10° 05:56:04 10° 187° (S) 1,652 9.2 -9.9°
Sets 05:58:08 0° 190° (S) 2,535 10.1 -9.6°
